Year,Month,Day,Hour,Minute,Value (Times are PST for temperature in C)
2012,08,10,00,00,14.30
2012,08,10,00,01,14.20
2012,08,10,00,02,14.20
2012,08,10,00,03,14.20
2012,08,10,00,04,14.20
2012,08,10,00,05,14.10
2012,08,10,00,06,14.10
2012,08,10,00,07,14.10
2012,08,10,00,08,14.10
2012,08,10,00,09,14.00
2012,08,10,00,10,14.00
2012,08,10,00,11,14.00
2012,08,10,00,12,14.00
2012,08,10,00,13,14.00
2012,08,10,00,14,14.00
2012,08,10,00,15,14.00
2012,08,10,00,16,14.00
2012,08,10,00,17,14.00
2012,08,10,00,18,14.00
2012,08,10,00,19,13.90
2012,08,10,00,20,13.90
2012,08,10,00,21,13.90
2012,08,10,00,22,13.90
2012,08,10,00,23,13.90
2012,08,10,00,24,13.90
2012,08,10,00,25,13.90
2012,08,10,00,26,13.90
2012,08,10,00,27,14.00
2012,08,10,00,28,14.00
2012,08,10,00,29,14.00
2012,08,10,00,30,14.10
2012,08,10,00,31,14.10
2012,08,10,00,32,14.10
2012,08,10,00,33,14.10
2012,08,10,00,34,14.10
2012,08,10,00,35,14.10
2012,08,10,00,36,14.10
2012,08,10,00,37,14.10
2012,08,10,00,38,14.10
2012,08,10,00,39,14.10
2012,08,10,00,40,14.20
2012,08,10,00,41,14.20
2012,08,10,00,42,14.20
2012,08,10,00,43,14.20
2012,08,10,00,44,14.30
2012,08,10,00,45,14.40
2012,08,10,00,46,14.40
2012,08,10,00,47,14.40
2012,08,10,00,48,14.50
2012,08,10,00,49,14.50
2012,08,10,00,50,14.60
2012,08,10,00,51,14.70
2012,08,10,00,52,14.90
2012,08,10,00,53,14.90
2012,08,10,00,54,14.90
2012,08,10,00,55,14.90
2012,08,10,00,56,14.80
2012,08,10,00,57,14.80
2012,08,10,00,58,14.80
2012,08,10,00,59,14.70
2012,08,10,01,00,14.70
2012,08,10,01,01,14.70
2012,08,10,01,02,14.60
2012,08,10,01,03,14.50
2012,08,10,01,04,14.50
2012,08,10,01,05,14.40
2012,08,10,01,06,14.40
2012,08,10,01,07,14.40
2012,08,10,01,08,14.40
2012,08,10,01,09,14.40
2012,08,10,01,10,14.40
2012,08,10,01,11,14.40
2012,08,10,01,12,14.40
2012,08,10,01,13,14.50
2012,08,10,01,14,14.50
2012,08,10,01,15,14.50
2012,08,10,01,16,14.40
2012,08,10,01,17,14.40
2012,08,10,01,18,14.50
2012,08,10,01,19,14.50
2012,08,10,01,20,14.50
2012,08,10,01,21,14.50
2012,08,10,01,22,14.50
2012,08,10,01,23,14.50
2012,08,10,01,24,14.50
2012,08,10,01,25,14.40
2012,08,10,01,26,14.40
2012,08,10,01,27,14.30
2012,08,10,01,28,14.30
2012,08,10,01,29,14.30
2012,08,10,01,30,14.30
2012,08,10,01,31,14.30
2012,08,10,01,32,14.20
2012,08,10,01,33,14.20
2012,08,10,01,34,14.10
2012,08,10,01,35,14.10
2012,08,10,01,36,14.00
2012,08,10,01,37,14.00
2012,08,10,01,38,13.90
2012,08,10,01,39,13.90
2012,08,10,01,40,13.80
2012,08,10,01,41,13.80
2012,08,10,01,42,13.80
2012,08,10,01,43,13.80
2012,08,10,01,44,13.80
2012,08,10,01,45,13.70
2012,08,10,01,46,13.70
2012,08,10,01,47,13.70
2012,08,10,01,48,13.60
2012,08,10,01,49,13.60
2012,08,10,01,50,13.60
2012,08,10,01,51,13.50
2012,08,10,01,52,13.50
2012,08,10,01,53,13.50
2012,08,10,01,54,13.50
2012,08,10,01,55,13.50
2012,08,10,01,56,13.50
2012,08,10,01,57,13.40
2012,08,10,01,58,13.40
2012,08,10,01,59,13.40
2012,08,10,02,00,13.30
2012,08,10,02,01,13.30
2012,08,10,02,02,13.20
2012,08,10,02,03,13.20
2012,08,10,02,04,13.20
2012,08,10,02,05,13.20
2012,08,10,02,06,13.20
2012,08,10,02,07,13.10
2012,08,10,02,08,13.10
2012,08,10,02,09,13.00
2012,08,10,02,10,13.00
2012,08,10,02,11,12.90
2012,08,10,02,12,12.90
2012,08,10,02,13,12.90
2012,08,10,02,14,12.90
2012,08,10,02,15,12.90
2012,08,10,02,16,12.90
2012,08,10,02,17,12.90
2012,08,10,02,18,12.90
2012,08,10,02,19,12.90
2012,08,10,02,20,12.80
2012,08,10,02,21,12.80
2012,08,10,02,22,12.80
2012,08,10,02,23,12.70
2012,08,10,02,24,12.70
2012,08,10,02,25,12.70
2012,08,10,02,26,12.70
2012,08,10,02,27,12.70
2012,08,10,02,28,12.60
2012,08,10,02,29,12.60
2012,08,10,02,30,12.60
2012,08,10,02,31,12.60
2012,08,10,02,32,12.60
2012,08,10,02,33,12.60
2012,08,10,02,34,12.60
2012,08,10,02,35,12.50
2012,08,10,02,36,12.50
2012,08,10,02,37,12.50
2012,08,10,02,38,12.50
2012,08,10,02,39,12.40
2012,08,10,02,40,12.40
2012,08,10,02,41,12.40
2012,08,10,02,42,12.40
2012,08,10,02,43,12.40
2012,08,10,02,44,12.30
2012,08,10,02,45,12.30
2012,08,10,02,46,12.30
2012,08,10,02,47,12.30
2012,08,10,02,48,12.30
2012,08,10,02,49,12.30
2012,08,10,02,50,12.20
2012,08,10,02,51,12.20
2012,08,10,02,52,12.20
2012,08,10,02,53,12.20
2012,08,10,02,54,12.10
2012,08,10,02,55,12.10
2012,08,10,02,56,12.10
2012,08,10,02,57,12.10
2012,08,10,02,58,12.10
2012,08,10,02,59,12.10
2012,08,10,03,00,12.10
2012,08,10,03,01,12.10
2012,08,10,03,02,12.10
2012,08,10,03,03,12.10
2012,08,10,03,04,12.10
2012,08,10,03,05,12.10
2012,08,10,03,06,12.10
2012,08,10,03,07,12.10
2012,08,10,03,08,12.10
2012,08,10,03,09,12.10
2012,08,10,03,10,12.10
2012,08,10,03,11,12.10
2012,08,10,03,12,12.10
2012,08,10,03,13,12.00
2012,08,10,03,14,12.00
2012,08,10,03,15,12.00
2012,08,10,03,16,12.00
2012,08,10,03,17,12.00
2012,08,10,03,18,12.00
2012,08,10,03,19,11.90
2012,08,10,03,20,11.90
2012,08,10,03,21,11.90
2012,08,10,03,22,11.90
2012,08,10,03,23,11.90
2012,08,10,03,24,11.90
2012,08,10,03,25,11.90
2012,08,10,03,26,11.90
2012,08,10,03,27,11.90
2012,08,10,03,28,11.90
2012,08,10,03,29,11.90
2012,08,10,03,30,11.90
2012,08,10,03,31,11.90
2012,08,10,03,32,11.90
2012,08,10,03,33,11.90
2012,08,10,03,34,11.90
2012,08,10,03,35,11.90
2012,08,10,03,36,11.90
2012,08,10,03,37,11.90
2012,08,10,03,38,11.90
2012,08,10,03,39,11.90
2012,08,10,03,40,11.80
2012,08,10,03,41,11.80
2012,08,10,03,42,11.80
2012,08,10,03,43,11.80
2012,08,10,03,44,11.80
2012,08,10,03,45,11.80
2012,08,10,03,46,11.80
2012,08,10,03,47,11.80
2012,08,10,03,48,11.70
2012,08,10,03,49,11.70
2012,08,10,03,50,11.70
2012,08,10,03,51,11.70
2012,08,10,03,52,11.70
2012,08,10,03,53,11.70
2012,08,10,03,54,11.70
2012,08,10,03,55,11.60
2012,08,10,03,56,11.60
2012,08,10,03,57,11.60
2012,08,10,03,58,11.60
2012,08,10,03,59,11.50
2012,08,10,04,00,11.50
2012,08,10,04,01,11.50
2012,08,10,04,02,11.50
2012,08,10,04,03,11.50
2012,08,10,04,04,11.50
2012,08,10,04,05,11.50
2012,08,10,04,06,11.50
2012,08,10,04,07,11.60
2012,08,10,04,08,11.60
2012,08,10,04,09,11.60
2012,08,10,04,10,11.60
2012,08,10,04,11,11.60
2012,08,10,04,12,11.60
2012,08,10,04,13,11.60
2012,08,10,04,14,11.50
2012,08,10,04,15,11.50
2012,08,10,04,16,11.50
2012,08,10,04,17,11.50
2012,08,10,04,18,11.50
2012,08,10,04,19,11.50
2012,08,10,04,20,11.50
2012,08,10,04,21,11.50
2012,08,10,04,22,11.50
2012,08,10,04,23,11.50
2012,08,10,04,24,11.50
2012,08,10,04,25,11.40
2012,08,10,04,26,11.40
2012,08,10,04,27,11.40
2012,08,10,04,28,11.40
2012,08,10,04,29,11.40
2012,08,10,04,30,11.40
2012,08,10,04,31,11.40
2012,08,10,04,32,11.40
2012,08,10,04,33,11.40
2012,08,10,04,34,11.40
2012,08,10,04,35,11.30
2012,08,10,04,36,11.40
2012,08,10,04,37,11.30
2012,08,10,04,38,11.30
2012,08,10,04,39,11.30
2012,08,10,04,40,11.30
2012,08,10,04,41,11.30
2012,08,10,04,42,11.30
2012,08,10,04,43,11.30
2012,08,10,04,44,11.30
2012,08,10,04,45,11.30
2012,08,10,04,46,11.30
2012,08,10,04,47,11.30
2012,08,10,04,48,11.30
2012,08,10,04,49,11.30
2012,08,10,04,50,11.30
2012,08,10,04,51,11.30
2012,08,10,04,52,11.30
2012,08,10,04,53,11.30
2012,08,10,04,54,11.30
2012,08,10,04,55,11.30
2012,08,10,04,56,11.30
2012,08,10,04,57,11.30
2012,08,10,04,58,11.30
2012,08,10,04,59,11.30
2012,08,10,05,00,11.30
2012,08,10,05,01,11.30
2012,08,10,05,02,11.30
2012,08,10,05,03,11.30
2012,08,10,05,04,11.30
2012,08,10,05,05,11.30
2012,08,10,05,06,11.30
2012,08,10,05,07,11.30
2012,08,10,05,08,11.30
2012,08,10,05,09,11.20
2012,08,10,05,10,11.20
2012,08,10,05,11,11.20
2012,08,10,05,12,11.10
2012,08,10,05,13,11.10
2012,08,10,05,14,11.10
2012,08,10,05,15,11.00
2012,08,10,05,16,11.00
2012,08,10,05,17,11.00
2012,08,10,05,18,11.00
2012,08,10,05,19,11.00
2012,08,10,05,20,11.00
2012,08,10,05,21,11.00
2012,08,10,05,22,11.10
2012,08,10,05,23,11.10
2012,08,10,05,24,11.10
2012,08,10,05,25,11.10
2012,08,10,05,26,11.00
2012,08,10,05,27,11.00
2012,08,10,05,28,11.00
2012,08,10,05,29,11.00
2012,08,10,05,30,11.00
2012,08,10,05,31,11.00
2012,08,10,05,32,11.00
2012,08,10,05,33,11.00
2012,08,10,05,34,11.00
2012,08,10,05,35,11.00
2012,08,10,05,36,11.00
2012,08,10,05,37,11.00
2012,08,10,05,38,11.00
2012,08,10,05,39,11.00
2012,08,10,05,40,11.00
2012,08,10,05,41,10.90
2012,08,10,05,42,10.90
2012,08,10,05,43,10.90
2012,08,10,05,44,10.90
2012,08,10,05,45,10.90
2012,08,10,05,46,10.90
2012,08,10,05,47,10.90
2012,08,10,05,48,10.90
2012,08,10,05,49,10.90
2012,08,10,05,50,10.90
2012,08,10,05,51,10.80
2012,08,10,05,52,10.80
2012,08,10,05,53,10.80
2012,08,10,05,54,10.80
2012,08,10,05,55,10.80
2012,08,10,05,56,10.80
2012,08,10,05,57,10.80
2012,08,10,05,58,10.80
2012,08,10,05,59,10.80
2012,08,10,06,00,10.80
2012,08,10,06,01,10.80
2012,08,10,06,02,10.80
2012,08,10,06,03,10.80
2012,08,10,06,04,10.80
2012,08,10,06,05,10.80
2012,08,10,06,06,10.80
2012,08,10,06,07,10.80
2012,08,10,06,08,10.80
2012,08,10,06,09,10.80
2012,08,10,06,10,10.80
2012,08,10,06,11,10.80
2012,08,10,06,12,10.80
2012,08,10,06,13,10.80
2012,08,10,06,14,10.80
2012,08,10,06,15,10.70
2012,08,10,06,16,10.70
2012,08,10,06,17,10.70
2012,08,10,06,18,10.70
2012,08,10,06,19,10.70
2012,08,10,06,20,10.60
2012,08,10,06,21,10.60
2012,08,10,06,22,10.60
2012,08,10,06,23,10.60
2012,08,10,06,24,10.60
2012,08,10,06,25,10.60
2012,08,10,06,26,10.60
2012,08,10,06,27,10.60
2012,08,10,06,28,10.60
2012,08,10,06,29,10.60
2012,08,10,06,30,10.60
2012,08,10,06,31,10.60
2012,08,10,06,32,10.60
2012,08,10,06,33,10.60
2012,08,10,06,34,10.60
2012,08,10,06,35,10.60
2012,08,10,06,36,10.60
2012,08,10,06,37,10.60
2012,08,10,06,38,10.50
2012,08,10,06,39,10.50
2012,08,10,06,40,10.50
2012,08,10,06,41,10.60
2012,08,10,06,42,10.60
2012,08,10,06,43,10.60
2012,08,10,06,44,10.60
2012,08,10,06,45,10.60
2012,08,10,06,46,10.70
2012,08,10,06,47,10.70
2012,08,10,06,48,10.70
2012,08,10,06,49,10.70
2012,08,10,06,50,10.80
2012,08,10,06,51,10.80
2012,08,10,06,52,10.80
2012,08,10,06,53,10.80
2012,08,10,06,54,10.90
2012,08,10,06,55,10.90
2012,08,10,06,56,10.90
2012,08,10,06,57,10.90
2012,08,10,06,58,11.00
2012,08,10,06,59,11.00
2012,08,10,07,00,11.00
2012,08,10,07,01,11.10
2012,08,10,07,02,11.10
2012,08,10,07,03,11.20
2012,08,10,07,04,11.20
2012,08,10,07,05,11.20
2012,08,10,07,06,11.20
2012,08,10,07,07,11.30
2012,08,10,07,08,11.30
2012,08,10,07,09,11.30
2012,08,10,07,10,11.40
2012,08,10,07,11,11.40
2012,08,10,07,12,11.40
2012,08,10,07,13,11.50
2012,08,10,07,14,11.50
2012,08,10,07,15,11.50
2012,08,10,07,16,11.60
2012,08,10,07,17,11.60
2012,08,10,07,18,11.60
2012,08,10,07,19,11.70
2012,08,10,07,20,11.70
2012,08,10,07,21,11.70
2012,08,10,07,22,11.80
2012,08,10,07,23,11.80
2012,08,10,07,24,11.90
2012,08,10,07,25,11.90
2012,08,10,07,26,12.00
2012,08,10,07,27,12.10
2012,08,10,07,28,12.20
2012,08,10,07,29,12.20
2012,08,10,07,30,12.30
2012,08,10,07,31,12.30
2012,08,10,07,32,12.40
2012,08,10,07,33,12.40
2012,08,10,07,34,12.50
2012,08,10,07,35,12.50
2012,08,10,07,36,12.60
2012,08,10,07,37,12.60
2012,08,10,07,38,12.70
2012,08,10,07,39,12.80
2012,08,10,07,40,12.80
2012,08,10,07,41,12.90
2012,08,10,07,42,12.90
2012,08,10,07,43,13.00
2012,08,10,07,44,13.10
2012,08,10,07,45,13.20
2012,08,10,07,46,13.20
2012,08,10,07,47,13.30
2012,08,10,07,48,13.30
2012,08,10,07,49,13.40
2012,08,10,07,50,13.40
2012,08,10,07,51,13.40
2012,08,10,07,52,13.40
2012,08,10,07,53,13.40
2012,08,10,07,54,13.40
2012,08,10,07,55,13.40
2012,08,10,07,56,13.40
2012,08,10,07,57,13.50
2012,08,10,07,58,13.50
2012,08,10,07,59,13.50
2012,08,10,08,00,13.60
2012,08,10,08,01,13.60
2012,08,10,08,02,13.60
2012,08,10,08,03,13.70
2012,08,10,08,04,13.70
2012,08,10,08,05,13.70
2012,08,10,08,06,13.70
2012,08,10,08,07,13.80
2012,08,10,08,08,13.80
2012,08,10,08,09,13.90
2012,08,10,08,10,13.90
2012,08,10,08,11,14.00
2012,08,10,08,12,14.00
2012,08,10,08,13,14.10
2012,08,10,08,14,14.10
2012,08,10,08,15,14.20
2012,08,10,08,16,14.20
2012,08,10,08,17,14.20
2012,08,10,08,18,14.30
2012,08,10,08,19,14.30
2012,08,10,08,20,14.30
2012,08,10,08,21,14.30
2012,08,10,08,22,14.40
2012,08,10,08,23,14.40
2012,08,10,08,24,14.50
2012,08,10,08,25,14.50
2012,08,10,08,26,14.60
2012,08,10,08,27,14.60
2012,08,10,08,28,14.70
2012,08,10,08,29,14.80
2012,08,10,08,30,14.80
2012,08,10,08,31,14.90
2012,08,10,08,32,14.90
2012,08,10,08,33,15.00
2012,08,10,08,34,15.10
2012,08,10,08,35,15.10
2012,08,10,08,36,15.20
2012,08,10,08,37,15.20
2012,08,10,08,38,15.30
2012,08,10,08,39,15.30
2012,08,10,08,40,15.40
2012,08,10,08,41,15.50
2012,08,10,08,42,15.50
2012,08,10,08,43,15.60
2012,08,10,08,44,15.70
2012,08,10,08,45,15.80
2012,08,10,08,46,15.80
2012,08,10,08,47,15.80
2012,08,10,08,48,15.80
2012,08,10,08,49,15.80
2012,08,10,08,50,15.80
2012,08,10,08,51,15.80
2012,08,10,08,52,15.80
2012,08,10,08,53,15.90
2012,08,10,08,54,15.90
2012,08,10,08,55,15.90
2012,08,10,08,56,16.00
2012,08,10,08,57,16.00
2012,08,10,08,58,16.00
2012,08,10,08,59,16.10
2012,08,10,09,00,16.10
2012,08,10,09,01,16.20
2012,08,10,09,02,16.30
2012,08,10,09,03,16.30
2012,08,10,09,04,16.30
2012,08,10,09,05,16.40
2012,08,10,09,06,16.40
2012,08,10,09,07,16.40
2012,08,10,09,08,16.50
2012,08,10,09,09,16.50
2012,08,10,09,10,16.60
2012,08,10,09,11,16.60
2012,08,10,09,12,16.60
2012,08,10,09,13,16.70
2012,08,10,09,14,16.70
2012,08,10,09,15,16.70
2012,08,10,09,16,16.70
2012,08,10,09,17,16.70
2012,08,10,09,18,16.70
2012,08,10,09,19,16.70
2012,08,10,09,20,16.80
2012,08,10,09,21,16.80
2012,08,10,09,22,16.90
2012,08,10,09,23,16.90
2012,08,10,09,24,17.00
2012,08,10,09,25,17.00
2012,08,10,09,26,17.00
2012,08,10,09,27,17.10
2012,08,10,09,28,17.10
2012,08,10,09,29,17.10
2012,08,10,09,30,17.10
2012,08,10,09,31,17.10
2012,08,10,09,32,17.20
2012,08,10,09,33,17.20
2012,08,10,09,34,17.20
2012,08,10,09,35,17.30
2012,08,10,09,36,17.30
2012,08,10,09,37,17.40
2012,08,10,09,38,17.40
2012,08,10,09,39,17.50
2012,08,10,09,40,17.50
2012,08,10,09,41,17.50
2012,08,10,09,42,17.60
2012,08,10,09,43,17.60
2012,08,10,09,44,17.70
2012,08,10,09,45,17.70
2012,08,10,09,46,17.80
2012,08,10,09,47,17.80
2012,08,10,09,48,17.80
2012,08,10,09,49,17.80
2012,08,10,09,50,17.80
2012,08,10,09,51,17.90
2012,08,10,09,52,17.90
2012,08,10,09,53,17.90
2012,08,10,09,54,17.90
2012,08,10,09,55,18.00
2012,08,10,09,56,18.00
2012,08,10,09,57,18.10
2012,08,10,09,58,18.10
2012,08,10,09,59,18.20
2012,08,10,10,00,18.30
2012,08,10,10,01,18.30
2012,08,10,10,02,18.40
2012,08,10,10,03,18.50
2012,08,10,10,04,18.50
2012,08,10,10,05,18.60
2012,08,10,10,06,18.60
2012,08,10,10,07,18.60
2012,08,10,10,08,18.70
2012,08,10,10,09,18.70
2012,08,10,10,10,18.80
2012,08,10,10,11,18.80
2012,08,10,10,12,18.90
2012,08,10,10,13,18.90
2012,08,10,10,14,19.00
2012,08,10,10,15,19.00
2012,08,10,10,16,19.10
2012,08,10,10,17,19.10
2012,08,10,10,18,19.00
2012,08,10,10,19,18.90
2012,08,10,10,20,18.90
2012,08,10,10,21,18.90
2012,08,10,10,22,18.90
2012,08,10,10,23,19.00
2012,08,10,10,24,19.00
2012,08,10,10,25,19.10
2012,08,10,10,26,19.10
2012,08,10,10,27,19.20
2012,08,10,10,28,19.20
2012,08,10,10,29,19.20
2012,08,10,10,30,19.20
2012,08,10,10,31,19.20
2012,08,10,10,32,19.20
2012,08,10,10,33,19.20
2012,08,10,10,34,19.20
2012,08,10,10,35,19.30
2012,08,10,10,36,19.40
2012,08,10,10,37,19.40
2012,08,10,10,38,19.50
2012,08,10,10,39,19.50
2012,08,10,10,40,19.60
2012,08,10,10,41,19.60
2012,08,10,10,42,19.50
2012,08,10,10,43,19.40
2012,08,10,10,44,19.40
2012,08,10,10,45,19.30
2012,08,10,10,46,19.30
2012,08,10,10,47,19.20
2012,08,10,10,48,19.10
2012,08,10,10,49,19.10
2012,08,10,10,50,19.10
2012,08,10,10,51,19.10
2012,08,10,10,52,19.10
2012,08,10,10,53,19.20
2012,08,10,10,54,19.20
2012,08,10,10,55,19.20
2012,08,10,10,56,19.30
2012,08,10,10,57,19.30
2012,08,10,10,58,19.40
2012,08,10,10,59,19.40
2012,08,10,11,00,19.50
2012,08,10,11,01,19.50
2012,08,10,11,02,19.60
2012,08,10,11,03,19.60
2012,08,10,11,04,19.70
2012,08,10,11,05,19.80
2012,08,10,11,06,19.80
2012,08,10,11,07,19.80
2012,08,10,11,08,19.80
2012,08,10,11,09,19.80
2012,08,10,11,10,19.80
2012,08,10,11,11,19.80
2012,08,10,11,12,19.90
2012,08,10,11,13,19.90
2012,08,10,11,14,20.00
2012,08,10,11,15,20.00
2012,08,10,11,16,19.90
2012,08,10,11,17,19.80
2012,08,10,11,18,19.80
2012,08,10,11,19,19.70
2012,08,10,11,20,19.80
2012,08,10,11,21,19.80
2012,08,10,11,22,19.80
2012,08,10,11,23,19.80
2012,08,10,11,24,19.90
2012,08,10,11,25,20.00
2012,08,10,11,26,20.00
2012,08,10,11,27,20.10
2012,08,10,11,28,20.10
2012,08,10,11,29,20.10
2012,08,10,11,30,20.10
2012,08,10,11,31,20.10
2012,08,10,11,32,20.00
2012,08,10,11,33,20.00
2012,08,10,11,34,19.90
2012,08,10,11,35,20.00
2012,08,10,11,36,19.90
2012,08,10,11,37,19.90
2012,08,10,11,38,20.00
2012,08,10,11,39,20.00
2012,08,10,11,40,20.10
2012,08,10,11,41,20.10
2012,08,10,11,42,20.10
2012,08,10,11,43,20.10
2012,08,10,11,44,20.20
2012,08,10,11,45,20.20
2012,08,10,11,46,20.20
2012,08,10,11,47,20.20
2012,08,10,11,48,20.30
2012,08,10,11,49,20.20
2012,08,10,11,50,20.20
2012,08,10,11,51,20.10
2012,08,10,11,52,20.10
2012,08,10,11,53,20.00
2012,08,10,11,54,19.90
2012,08,10,11,55,19.90
2012,08,10,11,56,19.80
2012,08,10,11,57,19.70
2012,08,10,11,58,19.60
2012,08,10,11,59,19.60
2012,08,10,12,00,19.60
2012,08,10,12,01,19.50
2012,08,10,12,02,19.50
2012,08,10,12,03,19.50
2012,08,10,12,04,19.50
2012,08,10,12,05,19.60
2012,08,10,12,06,19.60
2012,08,10,12,07,19.70
2012,08,10,12,08,19.70
2012,08,10,12,09,19.70
2012,08,10,12,10,19.70
2012,08,10,12,11,19.60
2012,08,10,12,12,19.50
2012,08,10,12,13,19.50
2012,08,10,12,14,19.40
2012,08,10,12,15,19.40
2012,08,10,12,16,19.30
2012,08,10,12,17,19.30
2012,08,10,12,18,19.30
2012,08,10,12,19,19.20
2012,08,10,12,20,19.20
2012,08,10,12,21,19.10
2012,08,10,12,22,19.10
2012,08,10,12,23,19.10
2012,08,10,12,24,19.10
2012,08,10,12,25,19.10
2012,08,10,12,26,19.00
2012,08,10,12,27,19.00
2012,08,10,12,28,19.10
2012,08,10,12,29,19.10
2012,08,10,12,30,19.20
2012,08,10,12,31,19.20
2012,08,10,12,32,19.30
2012,08,10,12,33,19.40
2012,08,10,12,34,19.50
2012,08,10,12,35,19.60
2012,08,10,12,36,19.60
2012,08,10,12,37,19.70
2012,08,10,12,38,19.70
2012,08,10,12,39,19.70
2012,08,10,12,40,19.60
2012,08,10,12,41,19.60
2012,08,10,12,42,19.50
2012,08,10,12,43,19.60
2012,08,10,12,44,19.60
2012,08,10,12,45,19.70
2012,08,10,12,46,19.80
2012,08,10,12,47,19.90
2012,08,10,12,48,20.00
2012,08,10,12,49,20.00
2012,08,10,12,50,20.10
2012,08,10,12,51,20.10
2012,08,10,12,52,20.00
2012,08,10,12,53,20.00
2012,08,10,12,54,19.90
2012,08,10,12,55,19.80
2012,08,10,12,56,19.80
2012,08,10,12,57,19.90
2012,08,10,12,58,19.90
2012,08,10,12,59,20.00
2012,08,10,13,00,20.10
2012,08,10,13,01,20.10
2012,08,10,13,02,20.20
2012,08,10,13,03,20.20
2012,08,10,13,04,20.20
2012,08,10,13,05,20.20
2012,08,10,13,06,20.30
2012,08,10,13,07,20.20
2012,08,10,13,08,20.20
2012,08,10,13,09,20.20
2012,08,10,13,10,20.30
2012,08,10,13,11,20.30
2012,08,10,13,12,20.20
2012,08,10,13,13,20.20
2012,08,10,13,14,20.20
2012,08,10,13,15,20.20
2012,08,10,13,16,20.20
2012,08,10,13,17,20.30
2012,08,10,13,18,20.30
2012,08,10,13,19,20.30
2012,08,10,13,20,20.30
2012,08,10,13,21,20.20
2012,08,10,13,22,20.20
2012,08,10,13,23,20.10
2012,08,10,13,24,20.00
2012,08,10,13,25,20.00
2012,08,10,13,26,19.90
2012,08,10,13,27,19.90
2012,08,10,13,28,19.90
2012,08,10,13,29,20.00
2012,08,10,13,30,20.00
2012,08,10,13,31,20.10
2012,08,10,13,32,20.10
2012,08,10,13,33,20.00
2012,08,10,13,34,19.90
2012,08,10,13,35,19.80
2012,08,10,13,36,19.70
2012,08,10,13,37,19.70
2012,08,10,13,38,19.60
2012,08,10,13,39,19.70
2012,08,10,13,40,19.70
2012,08,10,13,41,19.80
2012,08,10,13,42,19.90
2012,08,10,13,43,19.90
2012,08,10,13,44,20.10
2012,08,10,13,45,20.20
2012,08,10,13,46,20.30
2012,08,10,13,47,20.40
2012,08,10,13,48,20.50
2012,08,10,13,49,20.60
2012,08,10,13,50,20.60
2012,08,10,13,51,20.60
2012,08,10,13,52,20.60
2012,08,10,13,53,20.70
2012,08,10,13,54,20.70
2012,08,10,13,55,20.70
2012,08,10,13,56,20.70
2012,08,10,13,57,20.70
2012,08,10,13,58,20.60
2012,08,10,13,59,20.40
2012,08,10,14,00,20.30
2012,08,10,14,01,20.20
2012,08,10,14,02,20.10
2012,08,10,14,03,20.00
2012,08,10,14,04,20.00
2012,08,10,14,05,20.00
2012,08,10,14,06,20.10
2012,08,10,14,07,20.10
2012,08,10,14,08,20.10
2012,08,10,14,09,20.10
2012,08,10,14,10,20.10
2012,08,10,14,11,20.20
2012,08,10,14,12,20.20
2012,08,10,14,13,20.20
2012,08,10,14,14,20.30
2012,08,10,14,15,20.40
2012,08,10,14,16,20.50
2012,08,10,14,17,20.60
2012,08,10,14,18,20.70
2012,08,10,14,19,20.80
2012,08,10,14,20,20.90
2012,08,10,14,21,21.00
2012,08,10,14,22,21.10
2012,08,10,14,23,21.10
2012,08,10,14,24,21.20
2012,08,10,14,25,21.30
2012,08,10,14,26,21.30
2012,08,10,14,27,21.30
2012,08,10,14,28,21.30
2012,08,10,14,29,21.30
2012,08,10,14,30,21.30
2012,08,10,14,31,21.30
2012,08,10,14,32,21.30
2012,08,10,14,33,21.30
2012,08,10,14,34,21.40
2012,08,10,14,35,21.40
2012,08,10,14,36,21.50
2012,08,10,14,37,21.60
2012,08,10,14,38,21.70
2012,08,10,14,39,21.70
2012,08,10,14,40,21.80
2012,08,10,14,41,21.90
2012,08,10,14,42,22.10
2012,08,10,14,43,22.20
2012,08,10,14,44,22.40
2012,08,10,14,45,22.50
2012,08,10,14,46,22.70
2012,08,10,14,47,22.80
2012,08,10,14,48,22.90
2012,08,10,14,49,23.00
2012,08,10,14,50,23.20
2012,08,10,14,51,23.30
2012,08,10,14,52,23.40
2012,08,10,14,53,23.50
2012,08,10,14,54,23.60
2012,08,10,14,55,23.70
2012,08,10,14,56,23.80
2012,08,10,14,57,23.90
2012,08,10,14,58,24.00
2012,08,10,14,59,24.00
2012,08,10,15,00,24.10
2012,08,10,15,01,24.10
2012,08,10,15,02,24.10
2012,08,10,15,03,24.10
2012,08,10,15,04,24.10
2012,08,10,15,05,24.10
2012,08,10,15,06,24.10
2012,08,10,15,07,24.10
2012,08,10,15,08,24.10
2012,08,10,15,09,24.10
2012,08,10,15,10,24.20
2012,08,10,15,11,24.20
2012,08,10,15,12,24.20
2012,08,10,15,13,24.20
2012,08,10,15,14,24.20
2012,08,10,15,15,24.20
2012,08,10,15,16,24.10
2012,08,10,15,17,23.90
2012,08,10,15,18,23.70
2012,08,10,15,19,23.50
2012,08,10,15,20,23.40
2012,08,10,15,21,23.40
2012,08,10,15,22,23.30
2012,08,10,15,23,23.30
2012,08,10,15,24,23.30
2012,08,10,15,25,23.30
2012,08,10,15,26,23.30
2012,08,10,15,27,23.30
2012,08,10,15,28,23.30
2012,08,10,15,29,23.40
2012,08,10,15,30,23.40
2012,08,10,15,31,23.40
2012,08,10,15,32,23.50
2012,08,10,15,33,23.60
2012,08,10,15,34,23.70
2012,08,10,15,35,23.80
2012,08,10,15,36,23.80
2012,08,10,15,37,23.80
2012,08,10,15,38,23.90
2012,08,10,15,39,23.90
2012,08,10,15,40,24.00
2012,08,10,15,41,24.10
2012,08,10,15,42,24.10
2012,08,10,15,43,24.10
2012,08,10,15,44,24.10
2012,08,10,15,45,24.20
2012,08,10,15,46,24.30
2012,08,10,15,47,24.30
2012,08,10,15,48,24.40
2012,08,10,15,49,24.40
2012,08,10,15,50,24.40
2012,08,10,15,51,24.30
2012,08,10,15,52,24.30
2012,08,10,15,53,24.20
2012,08,10,15,54,24.10
2012,08,10,15,55,24.10
2012,08,10,15,56,24.10
2012,08,10,15,57,24.00
2012,08,10,15,58,23.90
2012,08,10,15,59,23.80
2012,08,10,16,00,23.60
2012,08,10,16,01,23.30
2012,08,10,16,02,23.10
2012,08,10,16,03,22.80
2012,08,10,16,04,22.50
2012,08,10,16,05,22.30
2012,08,10,16,06,22.10
2012,08,10,16,07,22.00
2012,08,10,16,08,22.00
2012,08,10,16,09,22.00
2012,08,10,16,10,22.10
2012,08,10,16,11,22.10
2012,08,10,16,12,22.10
2012,08,10,16,13,22.10
2012,08,10,16,14,22.10
2012,08,10,16,15,22.10
2012,08,10,16,16,22.10
2012,08,10,16,17,22.00
2012,08,10,16,18,21.90
2012,08,10,16,19,21.90
2012,08,10,16,20,21.80
2012,08,10,16,21,21.80
2012,08,10,16,22,21.80
2012,08,10,16,23,21.70
2012,08,10,16,24,21.70
2012,08,10,16,25,21.60
2012,08,10,16,26,21.60
2012,08,10,16,27,21.60
2012,08,10,16,28,21.60
2012,08,10,16,29,21.60
2012,08,10,16,30,21.60
2012,08,10,16,31,21.60
2012,08,10,16,32,21.60
2012,08,10,16,33,21.70
2012,08,10,16,34,21.80
2012,08,10,16,35,21.80
2012,08,10,16,36,21.90
2012,08,10,16,37,22.00
2012,08,10,16,38,22.10
2012,08,10,16,39,22.20
2012,08,10,16,40,22.30
2012,08,10,16,41,22.40
2012,08,10,16,42,22.50
2012,08,10,16,43,22.60
2012,08,10,16,44,22.70
2012,08,10,16,45,22.70
2012,08,10,16,46,22.80
2012,08,10,16,47,22.90
2012,08,10,16,48,22.90
2012,08,10,16,49,23.00
2012,08,10,16,50,23.10
2012,08,10,16,51,23.20
2012,08,10,16,52,23.20
2012,08,10,16,53,23.20
2012,08,10,16,54,23.30
2012,08,10,16,55,23.30
2012,08,10,16,56,23.30
2012,08,10,16,57,23.30
2012,08,10,16,58,23.40
2012,08,10,16,59,23.40
2012,08,10,17,00,23.30
2012,08,10,17,01,23.30
2012,08,10,17,02,23.20
2012,08,10,17,03,23.10
2012,08,10,17,04,23.00
2012,08,10,17,05,22.80
2012,08,10,17,06,22.80
2012,08,10,17,07,22.80
2012,08,10,17,08,22.80
2012,08,10,17,09,22.70
2012,08,10,17,10,22.70
2012,08,10,17,11,22.70
2012,08,10,17,12,22.70
2012,08,10,17,13,22.70
2012,08,10,17,14,22.70
2012,08,10,17,15,22.80
2012,08,10,17,16,22.80
2012,08,10,17,17,22.80
2012,08,10,17,18,22.70
2012,08,10,17,19,22.70